Wind_Speed
66 69 72 74 76 74 78 78 85 94 95 92 89 85 84 82 80 77 76 77 79 82 84 80 81 78 76 76 80 79 84 85 87 87 86 87 85 83 82 82 77 74 73 72 72 71 73
75 78 79 85 87 85 82 82 93 102 105 97 90 87 86 86 82 79 73 69 74 80 82 79 77 76 70 72 74 71 76 78 79 83 84 85 82 79 79 78 76 72 73 74 73 69 70
83 84 85 88 90 91 89 90 100 106 106 104 95 89 84 81 77 75 71 64 67 73 75 77 72 70 65 63 68 72 73 70 72 76 77 76 76 73 71 67 69 70 68 72 75 70 64
90 95 95 97 98 98 92 100 108 111 109 102 98 91 83 75 70 73 68 62 64 66 67 68 64 65 61 61 63 67 65 63 63 62 64 65 68 65 60 58 63 65 69 71 73 71 68
96 104 104 104 102 97 104 110 113 110 104 91 86 84 82 70 67 69 66 61 62 61 60 61 58 60 56 58 61 53 52 53 56 55 58 57 56 57 54 55 58 63 68 68 68 65 64
101 114 116 110 109 111 117 117 105 94 85 78 73 70 73 64 61 63 61 58 59 56 56 55 55 54 53 54 51 51 48 49 49 49 47 49 49 51 51 53 58 60 61 61 63 65 67
105 123 122 116 120 120 110 97 88 78 69 62 59 58 58 55 54 55 56 53 55 53 52 51 49 49 50 47 46 42 41 41 39 41 45 44 47 49 47 51 53 54 58 61 64 64 64
115 130 126 122 119 108 94 89 76 66 58 52 49 46 46 45 46 46 45 46 52 47 46 47 44 47 43 41 36 31 31 33 38 39 39 42 43 44 46 49 53 57 57 57 59 58 53
127 132 128 111 99 86 86 71 60 54 49 45 40 38 36 37 36 36 39 43 42 39 40 39 41 38 33 28 24 24 29 31 32 34 36 40 38 43 47 52 53 52 52 50 49 44 41
138 130 110 96 90 82 63 55 48 44 38 35 30 25 26 29 30 33 36 33 34 34 36 34 31 26 22 19 22 24 25 26 28 30 35 36 39 43 46 48 49 44 41 40 36 35 34
133 115 103 93 85 67 50 43 39 33 28 24 19 17 19 22 26 27 29 29 29 31 27 22 21 21 17 19 20 20 20 22 25 28 34 36 37 40 45 43 39 33 31 30 29 30 28
122 106 98 75 73 54 43 36 31 23 18 12 9 8 12 15 19 22 25 28 26 24 23 20 19 18 19 19 18 16 17 21 24 26 30 32 35 38 36 35 30 25 23 21 22 21 23
110 101 85 73 60 47 37 30 26 19 11 3 3 7 12 15 21 24 24 29 31 27 26 24 20 20 19 16 13 14 13 16 20 26 28 25 27 28 26 24 21 16 18 19 19 19 21
97 89 74 63 51 42 35 27 22 14 9 12 16 18 19 22 27 36 38 37 36 33 29 26 23 19 16 13 7 6 11 17 21 21 19 19 18 19 19 19 17 18 18 18 18 17 20
87 77 67 56 46 36 32 29 26 23 26 31 37 35 38 44 44 40 43 42 39 37 31 26 21 16 12 7 4 6 10 14 15 14 12 12 13 14 14 15 14 16 18 18 21 18 17
85 75 63 55 45 38 39 39 39 43 49 52 52 47 43 46 51 48 46 44 41 35 29 24 18 13 10 6 4 3 5 7 8 7 8 5 6 11 14 15 16 19 23 23 19 19 16
77 77 75 65 58 49 48 51 52 53 52 52 51 53 54 53 51 50 47 42 37 32 29 24 20 16 13 9 6 5 4 2 2 1 2 5 10 14 20 21 22 22 22 23 20 20 17
80 91 86 76 72 63 55 54 54 53 54 54 53 54 53 52 51 48 45 40 37 33 29 25 22 19 17 16 12 10 7 9 10 10 10 11 14 19 21 25 25 26 25 25 21 20 22
103 100 96 77 66 60 54 47 50 52 51 52 53 55 54 54 54 50 46 43 39 36 33 30 26 25 23 20 18 16 18 17 18 20 18 18 20 24 25 26 27 29 29 29 26 25 25
107 96 78 77 54 52 45 41 43 48 47 48 53 56 56 57 56 54 51 47 42 39 37 36 36 31 29 28 27 28 27 27 24 27 25 22 26 27 28 28 29 33 32 29 24 24 22
110 87 80 61 62 44 35 34 38 40 48 50 49 55 56 59 57 58 55 52 49 46 45 45 41 38 40 40 40 42 41 37 36 35 32 30 31 30 27 27 27 30 32 31 29 27 26
115 84 62 60 51 36 30 29 34 40 42 47 49 54 55 58 60 58 57 55 53 52 51 49 48 47 50 49 51 56 52 49 47 45 45 44 41 39 37 31 25 24 24 25 26 26 26
110 81 48 50 43 30 26 24 28 30 33 43 48 51 53 55 56 57 57 56 54 53 52 54 56 56 58 58 60 62 60 60 58 57 56 54 51 49 48 41 34 29 25 20 17 15 14
106 76 47 45 40 35 22 20 20 20 29 35 42 45 48 53 53 54 54 53 52 53 54 52 54 57 58 59 60 61 63 62 61 60 60 58 57 57 55 49 43 41 40 38 32 26 24
103 101 69 37 37 28 24 16 16 17 20 28 33 40 44 49 50 50 50 50 50 50 51 53 53 56 56 55 56 58 59 58 58 57 56 58 56 54 52 52 51 49 43 43 43 40 37
101 98 76 48 37 34 28 18 17 18 16 21 24 30 35 42 45 45 45 45 47 46 46 48 50 50 51 51 51 52 54 54 53 54 53 51 50 49 47 47 46 44 42 40 38 38 37
98 91 90 52 33 30 28 13 17 18 15 15 19 22 26 32 38 38 39 39 40 41 40 41 42 43 44 45 46 47 47 48 47 47 47 45 44 44 43 41 40 40 37 35 35 33 33
97 92 92 73 35 21 17 14 14 15 15 13 12 13 16 21 27 30 30 31 31 32 33 33 33 34 35 35 36 38 39 39 38 38 38 37 38 37 37 35 34 33 31 29 25 22 23
95 92 89 89 54 20 17 14 15 13 12 12 11 9 8 11 14 19 21 22 23 24 24 23 24 24 26 26 27 28 29 30 29 29 30 29 29 28 28 28 28 28 26 25 26 24 26
Wind_Direction
338 330 330 324 323 317 312 311 311 312 310 307 302 295 289 282 279 276 272 267 263 261 262 262 260 259 258 256 256 254 254 253 252 254 254 256 259 259 261 263 264 265 267 263 256 255 250
336 330 324 324 321 318 312 309 310 313 310 305 299 294 288 282 278 276 271 267 263 260 261 262 261 259 258 256 255 255 254 253 252 253 255 255 257 257 260 262 266 267 263 259 257 255 253
338 330 326 320 320 314 308 308 309 308 308 304 298 291 284 280 276 274 271 268 263 260 259 259 260 259 259 256 256 255 253 254 254 253 254 256 256 258 259 262 262 260 261 259 258 257 258
334 335 329 325 317 314 308 310 309 306 303 298 293 287 281 276 272 271 268 263 261 257 254 256 256 256 257 254 252 254 251 254 258 259 257 257 256 259 259 259 259 259 260 260 260 260 260
333 334 330 324 319 313 311 310 307 302 297 293 287 282 279 273 268 265 264 260 257 256 252 251 253 253 253 251 252 255 256 255 254 254 254 256 257 255 256 257 257 257 260 262 264 263 261
331 335 331 326 321 318 313 308 303 299 295 291 285 279 276 274 269 264 261 256 253 252 248 246 247 250 251 250 252 254 252 250 249 252 255 256 255 256 256 256 256 256 261 263 262 260 260
333 334 333 328 324 317 312 308 304 301 298 291 281 274 272 270 263 257 254 249 247 246 244 242 242 244 244 248 250 251 252 252 251 254 251 252 254 254 255 260 263 262 260 261 263 263 261
333 334 334 329 324 317 314 311 307 304 298 290 283 275 267 264 259 254 248 243 238 239 236 234 235 237 241 246 251 246 250 247 248 248 250 252 255 260 263 262 262 262 266 269 268 266 258
336 338 335 329 319 315 312 311 305 300 297 292 283 272 268 260 250 241 237 232 229 225 224 228 230 236 246 248 237 237 243 241 243 245 250 256 265 264 263 264 269 273 272 272 269 262 253
341 338 334 325 323 323 318 312 307 302 298 288 281 270 257 248 236 226 223 218 212 213 214 219 224 230 227 223 222 230 231 234 240 249 258 265 263 269 275 277 275 276 273 264 257 250 243
342 338 332 328 326 327 323 320 315 309 296 290 281 257 246 230 218 211 203 200 193 195 198 204 205 212 204 206 208 212 223 237 247 254 260 263 277 282 278 277 276 269 263 257 247 237 223
342 339 335 331 334 334 334 334 330 323 311 302 282 243 221 209 193 184 180 175 171 166 177 176 175 182 187 180 191 206 228 240 248 258 268 279 279 277 279 277 275 267 250 232 216 205 201
344 339 340 338 339 342 346 356 352 350 343 15 149 162 156 162 154 154 152 140 147 152 146 152 165 164 166 177 188 209 230 251 263 274 278 281 279 275 274 272 261 242 199 186 185 182 181
346 343 346 347 348 352 1 9 12 18 62 96 99 100 108 114 117 124 128 133 132 132 136 144 146 150 158 165 168 222 256 270 274 280 285 277 272 273 263 244 222 192 174 170 160 161 164
354 354 354 355 359 10 22 29 38 52 70 81 87 92 104 113 114 120 123 122 124 129 127 124 123 123 121 126 169 240 260 267 286 295 280 270 259 251 229 200 179 154 144 134 138 140 151
14 11 8 10 17 31 42 53 63 78 86 89 94 99 105 111 112 114 118 118 115 114 111 107 108 113 113 132 169 218 267 305 300 291 276 260 221 186 161 152 145 139 131 133 132 135 144
24 23 24 29 35 44 58 70 76 82 85 92 97 101 107 109 113 113 108 105 104 104 104 106 106 110 107 111 116 82 18 311 23 4 92 131 140 144 136 136 132 130 126 125 130 134 141
27 29 26 29 33 43 54 68 74 78 86 92 99 103 104 105 104 102 102 102 101 99 100 100 100 97 98 90 87 92 103 94 91 89 106 110 128 125 130 128 127 123 121 118 126 122 126
20 20 21 23 30 39 47 63 80 89 93 101 103 102 102 101 96 93 95 96 97 96 95 95 92 86 87 95 104 106 105 95 91 94 100 110 114 114 120 127 125 123 119 114 115 122 126
12 18 14 18 29 37 52 66 84 94 101 101 99 97 96 96 95 91 88 88 91 93 94 92 90 96 100 100 100 98 92 90 90 93 95 105 110 109 117 122 126 120 119 118 122 124 131
9 9 13 15 17 32 53 76 86 92 97 99 101 99 97 93 93 91 91 92 92 94 95 98 104 103 99 97 95 89 87 88 87 87 89 94 96 103 108 113 125 127 128 130 134 136 144
9 6 4 7 14 22 50 68 84 96 102 105 106 99 99 97 96 95 93 92 92 92 95 97 96 95 93 91 93 90 88 88 87 87 88 86 86 94 98 99 110 118 126 139 143 143 151
9 5 1 4 359 20 40 67 83 94 101 103 102 101 101 98 96 96 96 95 94 94 94 94 94 92 92 89 89 89 88 88 87 85 84 85 84 84 86 88 92 96 96 99 105 116 123
8 12 357 345 357 359 26 62 66 80 94 96 98 100 98 96 94 93 92 92 91 90 89 90 91 90 87 87 85 84 82 81 81 81 80 79 80 82 82 83 86 88 92 94 98 101 100
6 11 6 345 345 350 12 32 44 60 78 95 97 98 98 97 95 93 92 91 88 87 86 85 83 81 80 80 80 79 79 80 79 76 74 76 77 77 78 80 79 80 84 86 90 88 88
4 7 5 360 335 341 357 1 22 26 52 83 88 95 96 97 95 94 93 92 91 88 86 85 82 81 81 81 80 77 76 77 77 76 75 75 76 75 77 81 81 76 77 75 75 78 81
360 5 6 1 334 326 325 349 358 15 27 42 70 84 91 95 98 96 97 95 93 90 87 87 87 86 86 85 83 80 79 79 80 78 77 76 78 78 77 76 77 78 76 80 79 81 75
353 0 3 7 355 310 308 323 338 352 7 8 34 66 79 88 96 99 98 98 95 92 90 89 86 86 85 83 82 81 80 81 81 80 79 77 76 76 77 75 77 76 81 85 77 74 70
348 353 2 3 3 321 283 288 304 321 336 343 350 5 52 85 97 102 104 104 99 96 92 87 88 87 86 85 83 81 78 77 77 77 78 78 74 73 71 69 71 72 70 71 68 62 57
Height
10657 10645 10633 10621 10610 10597 10585 10571 10560 10550 10538 10529 10519 10511 10502 10494 10490 10487 10484 10487 10490 10491 10495 10500 10505 10508 10517 10523 10528 10534 10538 10545 10551 10555 10562 10567 10570 10575 10577 10577 10578 10583 10579 10585 10584 10586 10590
10643 10629 10616 10602 10587 10576 10564 10551 10536 10523 10505 10498 10492 10484 10475 10467 10463 10459 10460 10465 10466 10468 10475 10479 10485 10489 10498 10506 10505 10514 10516 10522 10529 10535 10540 10546 10551 10555 10560 10560 10560 10559 10561 10562 10563 10565 10570
10628 10615 10600 10585 10569 10555 10541 10527 10512 10497 10484 10464 10456 10451 10444 10440 10438 10435 10436 10444 10443 10447 10454 10459 10466 10470 10480 10486 10489 10492 10496 10503 10508 10516 10523 10530 10534 10538 10544 10545 10540 10540 10543 10542 10540 10546 10555
10611 10596 10580 10563 10546 10529 10512 10497 10479 10464 10451 10440 10423 10410 10412 10413 10412 10408 10412 10420 10422 10428 10435 10441 10447 10453 10461 10468 10473 10474 10482 10491 10497 10502 10508 10512 10516 10521 10524 10525 10523 10524 10524 10523 10524 10529 10532
10593 10575 10554 10537 10519 10500 10482 10463 10443 10426 10409 10404 10392 10384 10377 10385 10385 10383 10389 10397 10402 10409 10418 10424 10431 10436 10445 10451 10456 10464 10471 10478 10482 10486 10491 10495 10499 10503 10508 10508 10510 10508 10504 10506 10506 10511 10515
10575 10553 10530 10506 10485 10463 10442 10421 10402 10388 10375 10368 10362 10358 10351 10359 10361 10362 10368 10377 10385 10394 10402 10409 10416 10424 10433 10438 10446 10452 10458 10463 10468 10474 10479 10480 10484 10488 10492 10493 10491 10492 10493 10492 10491 10493 10495
10552 10528 10502 10475 10449 10427 10401 10380 10363 10352 10344 10339 10335 10333 10333 10334 10337 10341 10349 10361 10369 10379 10388 10396 10405 10413 10419 10427 10435 10442 10448 10454 10460 10464 10465 10469 10470 10474 10477 10477 10475 10476 10476 10476 10474 10474 10474
10530 10502 10468 10439 10413 10385 10361 10344 10331 10322 10315 10313 10311 10313 10313 10316 10320 10326 10335 10345 10353 10367 10378 10385 10394 10402 10411 10420 10429 10435 10440 10445 10448 10452 10455 10455 10458 10461 10462 10461 10460 10459 10458 10456 10453 10452 10452
10501 10468 10435 10409 10382 10360 10337 10319 10307 10299 10294 10292 10292 10293 10298 10300 10305 10314 10323 10331 10345 10358 10368 10378 10388 10397 10407 10416 10423 10428 10432 10437 10440 10442 10444 10444 10449 10448 10447 10444 10444 10442 10441 10438 10434 10434 10436
10468 10430 10401 10372 10348 10330 10313 10299 10289 10282 10279 10277 10278 10281 10285 10288 10294 10302 10311 10326 10339 10350 10363 10375 10385 10395 10403 10409 10415 10420 10426 10430 10431 10434 10433 10436 10436 10433 10430 10429 10428 10426 10424 10422 10422 10423 10427
10441 10409 10378 10348 10329 10311 10295 10284 10276 10271 10267 10268 10269 10272 10275 10280 10288 10298 10310 10322 10337 10348 10361 10375 10384 10391 10397 10405 10411 10416 10419 10422 10424 10426 10426 10426 10424 10418 10414 10412 10413 10414 10412 10412 10414 10416 10421
10420 10388 10360 10335 10317 10300 10285 10276 10268 10264 10262 10263 10265 10268 10273 10279 10288 10298 10310 10323 10337 10350 10361 10373 10381 10389 10396 10403 10408 10412 10414 10415 10416 10418 10416 10415 10411 10405 10401 10400 10401 10403 10403 10405 10408 10412 10417
10407 10375 10349 10325 10310 10295 10282 10273 10268 10264 10263 10262 10265 10268 10273 10282 10290 10301 10315 10327 10339 10352 10364 10372 10381 10390 10395 10400 10404 10408 10410 10410 10410 10409 10407 10405 10399 10394 10394 10393 10393 10395 10398 10400 10405 10412 10420
10402 10372 10345 10323 10309 10296 10284 10276 10271 10269 10268 10268 10270 10276 10282 10291 10299 10310 10323 10333 10346 10357 10367 10377 10385 10389 10393 10397 10401 10403 10405 10404 10403 10402 10399 10395 10391 10388 10388 10389 10390 10391 10396 10400 10407 10414 10422
10403 10372 10348 10330 10315 10303 10294 10287 10282 10280 10279 10279 10279 10286 10294 10303 10310 10322 10334 10342 10352 10363 10373 10380 10384 10388 10391 10395 10398 10399 10399 10399 10396 10394 10392 10388 10387 10386 10387 10386 10389 10392 10398 10404 10411 10416 10424
10412 10385 10360 10341 10326 10315 10305 10297 10296 10293 10292 10292 10294 10303 10312 10318 10328 10338 10346 10355 10362 10369 10375 10380 10385 10389 10392 10394 10395 10396 10394 10393 10391 10388 10387 10387 10386 10386 10386 10387 10391 10396 10402 10407 10413 10421 10427
10419 10396 10376 10358 10342 10331 10324 10315 10313 10311 10311 10312 10317 10324 10332 10339 10347 10353 10358 10363 10369 10374 10379 10384 10388 10391 10393 10393 10393 10392 10391 10391 10389 10386 10386 10386 10386 10388 10388 10391 10395 10400 10406 10412 10419 10426 10434
10430 10408 10394 10379 10368 10358 10351 10343 10337 10338 10340 10344 10347 10352 10354 10357 10361 10364 10368 10373 10377 10382 10386 10389 10391 10392 10393 10394 10394 10393 10392 10391 10390 10388 10388 10388 10390 10390 10392 10395 10400 10404 10411 10418 10425 10432 10440
10451 10433 10421 10410 10400 10388 10381 10376 10368 10363 10366 10371 10372 10373 10373 10373 10373 10376 10379 10383 10386 10389 10392 10394 10394 10394 10396 10399 10398 10396 10395 10392 10391 10392 10393 10393 10394 10395 10399 10404 10408 10413 10417 10423 10431 10438 10446
10475 10465 10452 10444 10431 10421 10413 10407 10401 10392 10392 10393 10392 10391 10390 10389 10388 10389 10391 10393 10396 10397 10399 10399 10401 10405 10405 10404 10402 10400 10397 10394 10397 10397 10399 10399 10400 10402 10405 10408 10412 10416 10422 10427 10433 10440 10447
10497 10484 10478 10468 10462 10450 10442 10435 10427 10423 10414 10413 10414 10408 10405 10403 10404 10405 10407 10409 10411 10412 10409 10411 10415 10413 10411 10409 10407 10406 10403 10404 10404 10404 10406 10407 10406 10407 10411 10415 10419 10421 10425 10431 10436 10441 10447
10522 10508 10499 10493 10482 10475 10466 10460 10451 10445 10439 10432 10430 10425 10422 10419 10420 10422 10423 10425 10425 10426 10426 10427 10424 10422 10419 10420 10416 10415 10415 10415 10415 10415 10414 10412 10414 10417 10421 10424 10429 10431 10432 10436 10439 10443 10448
10540 10524 10516 10510 10504 10497 10488 10482 10473 10468 10460 10454 10447 10444 10441 10436 10435 10435 10437 10439 10441 10442 10441 10439 10436 10435 10433 10431 10430 10428 10430 10428 10429 10428 10426 10426 10427 10427 10427 10434 10438 10439 10439 10442 10445 10450 10453
10558 10542 10533 10524 10519 10512 10506 10499 10493 10486 10478 10472 10466 10461 10457 10453 10451 10449 10450 10450 10452 10453 10452 10453 10450 10447 10447 10445 10443 10440 10438 10438 10440 10441 10439 10438 10438 10439 10442 10445 10449 10449 10450 10452 10456 10458 10459
10572 10555 10542 10536 10531 10526 10522 10516 10509 10504 10497 10489 10483 10478 10473 10468 10466 10465 10465 10464 10464 10464 10464 10464 10461 10458 10458 10457 10456 10454 10453 10453 10453 10452 10452 10451 10451 10453 10455 10455 10458 10461 10463 10462 10464 10466 10467
10577 10566 10552 10545 10540 10535 10531 10528 10523 10519 10513 10506 10499 10493 10489 10481 10479 10478 10479 10478 10476 10477 10478 10475 10473 10472 10471 10470 10470 10468 10466 10465 10464 10464 10466 10466 10465 10466 10467 10467 10467 10471 10471 10473 10473 10474 10477
10585 10575 10565 10552 10547 10544 10540 10538 10534 10529 10525 10520 10514 10509 10504 10498 10492 10491 10490 10490 10489 10488 10490 10489 10488 10487 10486 10485 10483 10481 10479 10478 10477 10477 10478 10478 10478 10478 10479 10480 10479 10478 10481 10483 10482 10484 10483
10586 10582 10570 10559 10551 10548 10546 10544 10542 10539 10534 10531 10527 10522 10518 10513 10507 10504 10502 10501 10501 10500 10500 10499 10499 10497 10495 10494 10492 10491 10491 10491 10490 10489 10489 10489 10488 10488 10488 10489 10489 10488 10488 10489 10490 10490 10489
10585 10581 10573 10564 10554 10551 10549 10548 10546 10544 10542 10538 10535 10531 10528 10524 10521 10516 10512 10511 10509 10508 10508 10508 10508 10507 10505 10502 10500 10499 10499 10498 10498 10498 10498 10497 10497 10496 10496 10496 10496 10495 10495 10493 10492 10493 10492